N7PDI-1 Weather Reports


Display with metric or nautical units.
time (UTC)temp
F
wind
direction
speed
MPH
gust
MPH
rain 1hr
in
rain 24hr
in
rain mn
in
humidity
%
barometer
mb
20260906224515 71 250 4.0 9.0 0.00 0.00 0.00
20260906220506 73 176 3.0 6.0 0.00 0.00 0.00
20260906215144 73 250 1.0 6.0 0.00 0.00 0.00
20260906213821 73 318 4.0 9.0 0.00 0.00 0.00
20260906212457 74 233 3.0 8.0 0.00 0.00 0.00
20260906211134 72 246 7.0 14.0 0.00 0.00 0.00
20260906203125 75 207 5.0 12.0 0.00 0.00 0.00
20260906201802 75 242 4.0 10.0 0.00 0.00 0.00
20260906200440 74 336 2.0 9.0 0.00 0.00 0.00
20260906195115 72 211 6.0 11.0 0.00 0.00 0.00
20260906183055 74 226 3.0 8.0 0.00 0.00 0.00
20260906180406 75 228 3.0 9.0 0.00 0.00 0.00
20260906175043 75 214 2.0 11.0 0.00 0.00 0.00
20260906173721 73 243 3.0 8.0 0.00 0.00 0.00
20260906164350 74 177 2.0 8.0 0.00 0.00 0.00
20260906163027 72 243 3.0 9.0 0.00 0.00 0.00
20260906160339 70 221 2.0 7.0 0.00 0.00 0.00
20260906152325 68 98 1.0 5.0 0.00 0.00 0.00
20260906151001 62 274 2.0 1.0 0.00 0.00 0.00
20260906145638 59 339 1.0 2.0 0.00 0.00 0.00
20260906142953 56 197 0.0 4.0 0.00 0.00 0.00
20260906141630 56 68 0.0 1.0 0.00 0.00 0.00
20260906140307 52 69 3.0 4.0 0.00 0.00 0.00
20260906134944 55 41 0.0 0.0 0.00 0.00 0.00
20260906132300 45 46 0.0 0.0 0.00 0.00 0.00
20260906130936 44 60 1.0 1.0 0.00 0.00 0.00
20260906125613 45 180 0.0 3.0 0.00 0.00 0.00
20260906124248 45 31 0.0 1.0 0.00 0.00 0.00
20260906122925 45 68 2.0 3.0 0.00 0.00 0.00
20260906122043 44 149 0.0 0.0 0.00 0.00 0.00
20260906121556 44 149 0.0 0.0 0.00 0.00 0.00
20260906114911 45 8 0.0 0.0 0.00 0.00 0.00
20260906112225 48 335 0.0 0.0 0.00 0.00 0.00
20260906110903 48 238 0.0 2.0 0.00 0.00 0.00
20260906105540 47 53 0.0 0.0 0.00 0.00 0.00
20260906104217 47 347 2.0 1.0 0.00 0.00 0.00
20260906102855 49 271 0.0 2.0 0.00 0.00 0.00
20260906100902 45 77 3.0 4.0 0.00 0.00 0.00
20260906094216 46 41 0.0 4.0 0.00 0.00 0.00
20260906092854 47 30 1.0 1.0 0.00 0.00 0.00
20260906090209 48 20 1.0 3.0 0.00 0.00 0.00
20260906084844 47 42 1.0 2.0 0.00 0.00 0.00
20260906082157 48 82 1.0 2.0 0.00 0.00 0.00
20260906080835 48 83 1.0 2.0 0.00 0.00 0.00
20260906074149 48 31 1.0 3.0 0.00 0.00 0.00
20260906072826 48 76 0.0 0.0 0.00 0.00 0.00
20260906070136 49 32 0.0 0.0 0.00 0.00 0.00
20260906064813 49 27 1.0 1.0 0.00 0.00 0.00
20260906055441 52 262 0.0 1.0 0.00 0.00 0.00
20260906054117 52 343 2.0 1.0 0.00 0.00 0.00
20260906052755 53 96 0.0 2.0 0.00 0.00 0.00
20260906051432 51 6 0.0 0.0 0.00 0.00 0.00
20260906050107 51 6 0.0 0.0 0.00 0.00 0.00
20260906043421 51 49 2.0 0.0 0.00 0.00 0.00
20260906042058 53 353 0.0 0.0 0.00 0.00 0.00
20260906040733 54 353 0.0 0.0 0.00 0.00 0.00
20260906035411 54 24 0.0 2.0 0.00 0.00 0.00
20260906034045 54 86 0.0 0.0 0.00 0.00 0.00
20260906031359 56 1 0.0 0.0 0.00 0.00 0.00
20260906030037 56 1 0.0 0.0 0.00 0.00 0.00
20260906024713 59 1 0.0 1.0 0.00 0.00 0.00
20260906023349 61 44 0.0 2.0 0.00 0.00 0.00
20260906022027 61 15 0.0 0.0 0.00 0.00 0.00
20260906015336 65 15 0.0 0.0 0.00 0.00 0.00
20260906011324 71 215 1.0 4.0 0.00 0.00 0.00
20260906004637 73 232 4.0 9.0 0.00 0.00 0.00
20260906003315 73 224 2.0 6.0 0.00 0.00 0.00
20260906001952 74 274 4.0 3.0 0.00 0.00 0.00
20260905235306 75 248 7.0 13.0 0.00 0.00 0.00